Tracking 35275 objects as of 9-Sep-2026
HD Live streaming from Space Station
objects crossing your sky now

SL-23 DEB


SL-23 DEB is no longer on orbit


NORAD ID: 37759
Int'l Code: 2011-037E
Launch date: July 18, 2011
Source: Commonwealth of Independent States (former USSR) (CIS)
Launch site: TYURATAM MISSILE AND SPACE COMPLEX (TTMTR)
Decay date: 2011-08-03

Note: This is SATELLITE DEBRIS
Your satellite tracking list
Your tracking list is empty




NASA's NSSDC Master Catalog

Two Line Element Set (TLE):
1 37759U 11037E   11215.16925436 +.18826009 +11692-4 +47572-3 0  9994
2 37759 051.4021 260.4449 0049231 145.8580 242.6721 16.38994769002328
Source of the keplerian elements: AFSPC